[[{"header":{"parameterUnit":"m.s-1","parameterCategory":1,"la1":30.2992,"la2":30.254,"lo1":-89.0895,"lo2":-89.0443,"dy":0.0025,"dx":0.0025,"nx":19,"ny":19,"refTime":"2026-03-21T03:00:00:Z","depth":0,"parameterNumber":2,"parameterNumberName":"U-component_of_WINDS"},"data":[0,0,0,3.9811,3.9816,4.0081,4.0082,4.042,4.0423,0,0,0,0,0,0,0,0,0,0,0,3.9733,3.9735,3.981,3.9817,4.008,4.0082,4.0419,4.0423,0,0,0,0,0,0,0,0,0,0,0,3.9731,3.9734,3.9737,3.9818,4.008,4.0082,4.0418,4.0219,0,0,0,0,0,0,0,0,0,0,3.9963,3.9891,3.9734,3.9737,3.9819,4.008,4.0082,4.021,4.0232,4.03,0,4.0361,0,4.0397,4.0445,4.0447,0,0,0,3.9817,3.9872,3.9943,3.9738,3.9822,4.008,3.9962,4.0222,4.0247,4.0329,4.0366,4.0378,4.0403,4.0448,4.0449,4.0839,4.0841,0,0,3.9802,3.9781,3.9926,3.9959,3.9918,3.9953,3.997,4.0237,4.0275,4.0367,4.0386,4.0408,4.045,4.0452,4.0837,4.0839,0,0,0,3.976,3.977,3.9835,3.9945,3.9993,3.9961,3.998,4.0264,4.0286,4.039,4.0412,4.0452,4.0456,4.0835,4.0838,4.0903,0,0,0,3.9752,3.9746,3.9828,3.9817,3.9988,4.0132,4.0001,4.0268,4.0299,4.041,4.0452,4.0459,4.0833,4.0837,4.0897,4.0937,0,0,0,3.9715,3.9742,3.978,3.9816,3.9928,4.0128,4.0166,4.0275,4.0313,4.0447,4.046,4.0832,4.0836,4.0891,4.0928,4.1029,0,0,0,3.9671,3.9837,3.978,3.9975,3.9926,4.0166,4.0164,4.0345,4.0469,4.0454,4.0834,4.0838,4.089,4.0923,4.1023,4.1108,4.1142,0,0,3.9868,3.986,3.9976,3.9933,4.0176,4.0128,4.0382,4.0517,4.0552,4.0741,4.0751,4.0899,4.0927,4.1028,4.1346,4.1373,0,0,0,4.0031,4.0113,4.0183,4.0297,4.0403,4.0496,4.0594,4.0643,4.0804,4.0644,4.0965,4.0983,4.1043,4.1084,4.1107,4.1158,4.0857,4.0856,4.0856,4.0278,4.031,4.0502,4.0565,4.0677,4.0774,4.0867,4.095,4.0954,4.1028,4.1084,4.1273,4.1321,4.1338,4.1391,4.1134,4.1134,4.1135,4.1135,4.0567,4.0686,4.0683,4.0867,4.09,4.1056,4.1156,4.1152,4.1301,4.1235,4.1289,4.1211,4.1366,4.1414,4.114,4.1139,4.1139,4.1138,4.1138,4.0729,4.0791,4.0848,4.1014,4.1139,4.1198,4.1339,4.1366,4.1392,4.1446,4.1505,4.1504,4.1503,4.1473,4.1474,4.1474,4.1475,4.1475,4.1476,4.0874,4.0935,4.105,4.1173,4.1248,4.135,4.1448,4.1523,4.1612,4.162,4.162,4.1613,4.1377,4.1314,4.1486,4.1484,4.1483,4.1482,4.1481,4.1149,4.109,4.1268,4.1343,4.1487,4.1607,4.1639,4.1788,4.1853,4.1922,4.1903,4.1725,4.1719,4.1701,4.1649,4.1898,4.1897,4.1898,4.1898,4.1283,4.1282,4.1467,4.1584,4.1702,4.1748,4.1945,4.2022,4.2093,4.2135,4.2103,4.2038,4.2019,4.2024,4.1999,4.1951,4.2271,4.2271,4.2271,4.1452,4.1463,4.1626,4.1692,4.1806,4.1903,4.2089,4.2223,4.2291,4.2287,4.2167,4.2151,4.2047,4.2012,4.2002,4.1963,4.1876,0,0]},{"header":{"parameterUnit":"m.s-1","parameterCategory":1,"la1":30.2992,"la2":30.254,"lo1":-89.0895,"lo2":-89.0443,"dy":0.0025,"dx":0.0025,"nx":19,"ny":19,"refTime":"2026-03-21T03:00:00:Z","depth":0,"parameterNumber":3,"parameterNumberName":"V-component_of_WINDS"},"data":[0,0,0,2.0866,2.0868,2.0946,2.0946,2.105,2.105,0,0,0,0,0,0,0,0,0,0,0,2.0848,2.0849,2.0866,2.0868,2.0946,2.0946,2.1049,2.105,0,0,0,0,0,0,0,0,0,0,0,2.0847,2.0848,2.0849,2.0869,2.0946,2.0946,2.1049,2.0989,0,0,0,0,0,0,0,0,0,0,2.0913,2.09,2.0848,2.0849,2.0869,2.0946,2.0946,2.0986,2.0993,2.1017,0,2.1041,0,2.1047,2.1058,2.1058,0,0,0,2.0865,2.0894,2.0911,2.085,2.087,2.0945,2.091,2.0989,2.0997,2.1026,2.1042,2.1046,2.1049,2.1059,2.1059,2.1212,2.1213,0,0,2.0861,2.0864,2.0906,2.0917,2.0906,2.0907,2.0912,2.0994,2.1012,2.1042,2.1048,2.1051,2.1059,2.106,2.1211,2.1212,0,0,0,2.0851,2.0861,2.0876,2.0912,2.0926,2.091,2.0915,2.1008,2.1013,2.1049,2.1052,2.106,2.1061,2.121,2.1211,2.1257,0,0,0,2.0848,2.0855,2.0874,2.0877,2.0925,2.0968,2.0928,2.1007,2.1016,2.1051,2.106,2.1062,2.1209,2.1211,2.1254,2.1278,0,0,0,2.0841,2.0854,2.0867,2.0877,2.091,2.0967,2.0976,2.1009,2.1018,2.1058,2.1063,2.1208,2.121,2.1251,2.1274,2.1319,0,0,0,2.0835,2.0907,2.0868,2.0949,2.091,2.0995,2.0976,2.1039,2.1079,2.106,2.1209,2.1211,2.125,2.1271,2.1316,2.1358,2.1375,0,0,2.0927,2.0918,2.0966,2.0933,2.1026,2.0983,2.1082,2.1116,2.1117,2.118,2.1183,2.1255,2.1273,2.1318,2.1474,2.1489,0,0,0,2.0996,2.103,2.1054,2.1093,2.112,2.1145,2.1163,2.1175,2.1229,2.115,2.1284,2.1294,2.1321,2.134,2.1353,2.1374,2.1221,2.122,2.122,2.1132,2.1129,2.1207,2.1213,2.125,2.1267,2.1297,2.1316,2.1302,2.1334,2.1352,2.1448,2.1471,2.148,2.1503,2.1374,2.1374,2.1375,2.1375,2.1267,2.1314,2.1294,2.1362,2.1358,2.1415,2.1433,2.1421,2.1473,2.1434,2.1457,2.1414,2.1496,2.1515,2.1378,2.1378,2.1377,2.1377,2.1377,2.1355,2.1378,2.1391,2.1445,2.1487,2.149,2.154,2.1534,2.1529,2.1552,2.157,2.157,2.1568,2.1561,2.1561,2.1562,2.1562,2.1562,2.1562,2.1442,2.1455,2.1499,2.1533,2.1556,2.1586,2.1602,2.1625,2.1647,2.1639,2.1639,2.1622,2.1505,2.1475,2.1568,2.1567,2.1566,2.1566,2.1565,2.158,2.1547,2.1615,2.1638,2.1676,2.1717,2.1709,2.1754,2.1771,2.1796,2.1773,2.1688,2.1678,2.1668,2.1644,2.1774,2.1774,2.1774,2.1774,2.1654,2.1648,2.1715,2.1752,2.1788,2.1786,2.1861,2.1873,2.1882,2.1892,2.1872,2.1839,2.1829,2.1825,2.1812,2.1789,2.1953,2.1954,2.1954,2.1738,2.1736,2.1801,2.1809,2.1838,2.1863,2.1932,2.1974,2.1976,2.1961,2.1899,2.1892,2.1838,2.1821,2.1805,2.1785,2.1742,0,0]}]]